Time,TemperatureF,DewpointF,PressureIn,WindDirection,WindDirectionDegrees,WindSpeedMPH,WindSpeedGustMPH,Humidity,HourlyPrecipIn,Conditions,Clouds,dailyrainin,SoftwareType,DateUTC
2013-02-26 00:00:00,38.4,25.7,29.90,East,87,1.0,1.0,60,0.00,,,0.00,Wunderground v.1.15,2013-02-26 05:00:00,
2013-02-26 00:05:00,38.3,25.2,29.90,NW,312,0.0,2.0,59,0.00,,,0.00,Wunderground v.1.15,2013-02-26 05:05:00,
2013-02-26 00:15:00,37.8,25.1,29.89,WNW,295,0.0,2.0,60,0.00,,,0.00,Wunderground v.1.15,2013-02-26 05:15:00,
2013-02-26 00:20:00,38.0,25.3,29.89,NNW,329,1.0,1.0,60,0.00,,,0.00,Wunderground v.1.15,2013-02-26 05:20:00,
2013-02-26 00:25:00,38.0,25.7,29.88,NW,316,1.0,2.0,61,0.00,,,0.00,Wunderground v.1.15,2013-02-26 05:25:00,
2013-02-26 00:30:00,37.8,25.5,29.88,NW,304,0.0,2.0,61,0.00,,,0.00,Wunderground v.1.15,2013-02-26 05:30:00,
2013-02-26 00:40:00,38.2,25.5,29.86,NE,36,1.0,2.0,60,0.00,,,0.00,Wunderground v.1.15,2013-02-26 05:40:00,
2013-02-26 00:50:00,38.3,26.0,29.86,WNW,286,0.0,2.0,61,0.00,,,0.00,Wunderground v.1.15,2013-02-26 05:50:00,
2013-02-26 00:55:00,38.4,25.3,29.86,NE,53,1.0,2.0,59,0.00,,,0.00,Wunderground v.1.15,2013-02-26 05:55:00,
2013-02-26 01:05:00,38.2,25.5,29.86,SSE,162,0.0,2.0,60,0.00,,,0.00,Wunderground v.1.15,2013-02-26 06:05:00,
2013-02-26 01:10:00,38.6,25.5,29.86,SSW,205,0.0,2.0,59,0.00,,,0.00,Wunderground v.1.15,2013-02-26 06:10:00,
2013-02-26 01:20:00,39.0,26.3,29.85,WNW,300,0.0,2.0,60,0.00,,,0.00,Wunderground v.1.15,2013-02-26 06:20:00,
2013-02-26 01:30:00,39.4,26.7,29.83,NNE,23,0.0,2.0,60,0.00,,,0.00,Wunderground v.1.15,2013-02-26 06:30:00,
2013-02-26 01:40:00,40.1,26.1,29.82,North,352,1.0,2.0,57,0.00,,,0.00,Wunderground v.1.15,2013-02-26 06:40:00,
2013-02-26 01:45:00,40.4,25.9,29.82,ENE,74,1.0,2.0,56,0.00,,,0.00,Wunderground v.1.15,2013-02-26 06:45:00,
2013-02-26 01:55:00,40.9,26.0,29.81,WNW,285,1.0,3.0,55,0.00,,,0.00,Wunderground v.1.15,2013-02-26 06:55:00,
2013-02-26 02:00:00,40.8,25.9,29.81,NE,42,1.0,1.0,55,0.00,,,0.00,Wunderground v.1.15,2013-02-26 07:00:00,
2013-02-26 02:10:00,40.7,26.2,29.81,NE,47,1.0,1.0,56,0.00,,,0.00,Wunderground v.1.15,2013-02-26 07:10:00,
2013-02-26 02:15:00,40.5,26.9,29.80,NE,49,0.0,2.0,58,0.00,,,0.00,Wunderground v.1.15,2013-02-26 07:15:00,
2013-02-26 02:25:00,40.2,26.6,29.79,NNE,23,1.0,2.0,58,0.00,,,0.00,Wunderground v.1.15,2013-02-26 07:25:00,
2013-02-26 02:35:00,40.1,26.1,29.78,NW,318,1.0,2.0,57,0.00,,,0.00,Wunderground v.1.15,2013-02-26 07:35:00,
2013-02-26 02:40:00,40.1,26.1,29.78,NNE,32,1.0,1.0,57,0.00,,,0.00,Wunderground v.1.15,2013-02-26 07:40:00,
2013-02-26 02:50:00,40.0,26.4,29.79,ENE,67,0.0,2.0,58,0.00,,,0.00,Wunderground v.1.15,2013-02-26 07:50:00,
2013-02-26 03:00:00,39.8,26.2,29.78,NNE,25,0.0,2.0,58,0.00,,,0.00,Wunderground v.1.15,2013-02-26 08:00:00,
2013-02-26 03:10:00,40.2,26.6,29.76,NNE,19,2.0,2.0,58,0.00,,,0.00,Wunderground v.1.15,2013-02-26 08:10:00,
2013-02-26 03:15:00,40.2,26.6,29.76,NNE,15,1.0,2.0,58,0.00,,,0.00,Wunderground v.1.15,2013-02-26 08:15:00,
2013-02-26 03:20:00,40.3,26.7,29.76,NE,44,1.0,1.0,58,0.00,,,0.00,Wunderground v.1.15,2013-02-26 08:20:00,
2013-02-26 03:30:00,40.4,26.4,29.74,North,4,1.0,2.0,57,0.00,,,0.00,Wunderground v.1.15,2013-02-26 08:30:00,
2013-02-26 03:40:00,40.6,27.0,29.73,NNE,12,1.0,2.0,58,0.00,,,0.00,Wunderground v.1.15,2013-02-26 08:40:00,
2013-02-26 03:50:00,40.7,26.6,29.72,NNE,24,1.0,2.0,57,0.00,,,0.00,Wunderground v.1.15,2013-02-26 08:50:00,
2013-02-26 04:00:00,40.9,26.8,29.71,NE,34,1.0,2.0,57,0.00,,,0.00,Wunderground v.1.15,2013-02-26 09:00:00,
2013-02-26 04:10:00,40.9,27.2,29.70,NE,36,1.0,2.0,58,0.00,,,0.00,Wunderground v.1.15,2013-02-26 09:10:00,
2013-02-26 04:20:00,41.0,27.8,29.71,East,81,1.0,1.0,59,0.00,,,0.00,Wunderground v.1.15,2013-02-26 09:20:00,
2013-02-26 04:30:00,41.2,27.5,29.69,NE,39,2.0,2.0,58,0.00,,,0.00,Wunderground v.1.15,2013-02-26 09:30:00,
2013-02-26 04:40:00,41.2,27.5,29.69,NNE,23,0.0,2.0,58,0.00,,,0.00,Wunderground v.1.15,2013-02-26 09:40:00,
2013-02-26 04:50:00,41.4,28.1,29.68,NNE,15,1.0,2.0,59,0.00,,,0.00,Wunderground v.1.15,2013-02-26 09:50:00,
2013-02-26 05:00:00,41.6,28.7,29.68,NE,37,1.0,1.0,60,0.00,,,0.00,Wunderground v.1.15,2013-02-26 10:00:00,
2013-02-26 05:10:00,40.6,31.9,29.68,NNW,335,0.0,2.0,71,0.00,,,0.01,Wunderground v.1.15,2013-02-26 10:10:00,
2013-02-26 05:20:00,39.3,33.3,29.68,NW,323,0.0,2.0,79,0.08,,,0.03,Wunderground v.1.15,2013-02-26 10:20:00,
2013-02-26 05:30:00,38.3,33.6,29.69,WNW,293,1.0,1.0,83,0.05,,,0.03,Wunderground v.1.15,2013-02-26 10:30:00,
2013-02-26 05:35:00,38.1,34.6,29.70,WNW,293,0.0,2.0,87,0.00,,,0.03,Wunderground v.1.15,2013-02-26 10:35:00,
2013-02-26 05:45:00,37.7,35.0,29.68,WNW,294,0.0,2.0,90,0.11,,,0.05,Wunderground v.1.15,2013-02-26 10:45:00,
2013-02-26 05:55:00,37.4,35.0,29.68,NE,37,0.0,2.0,91,0.17,,,0.07,Wunderground v.1.15,2013-02-26 10:55:00,
2013-02-26 06:05:00,37.2,35.1,29.67,NNW,329,0.0,2.0,92,0.11,,,0.09,Wunderground v.1.15,2013-02-26 11:05:00,
2013-02-26 06:10:00,37.2,35.1,29.67,NW,326,0.0,2.0,92,0.09,,,0.10,Wunderground v.1.15,2013-02-26 11:10:00,
2013-02-26 06:20:00,37.2,34.8,29.64,North,356,0.0,2.0,91,0.08,,,0.11,Wunderground v.1.15,2013-02-26 11:20:00,
2013-02-26 06:30:00,37.4,34.7,29.64,NNW,342,1.0,1.0,90,0.07,,,0.12,Wunderground v.1.15,2013-02-26 11:30:00,
2013-02-26 06:40:00,37.4,35.3,29.65,WNW,297,0.0,2.0,92,0.04,,,0.13,Wunderground v.1.15,2013-02-26 11:40:00,
2013-02-26 06:50:00,37.4,35.3,29.65,NE,46,0.0,2.0,92,0.05,,,0.14,Wunderground v.1.15,2013-02-26 11:50:00,
2013-02-26 06:55:00,37.4,35.0,29.63,North,10,0.0,2.0,91,0.05,,,0.14,Wunderground v.1.15,2013-02-26 11:55:00,
2013-02-26 07:00:00,37.5,35.1,29.63,East,96,1.0,2.0,91,0.06,,,0.15,Wunderground v.1.15,2013-02-26 12:00:00,
2013-02-26 07:05:00,37.7,35.0,29.63,NE,48,1.0,2.0,90,0.06,,,0.15,Wunderground v.1.15,2013-02-26 12:05:00,
2013-02-26 07:15:00,37.9,35.2,29.62,NE,48,0.0,2.0,90,0.04,,,0.15,Wunderground v.1.15,2013-02-26 12:15:00,
2013-02-26 07:25:00,38.0,35.3,29.61,NE,47,1.0,3.0,90,0.00,,,0.15,Wunderground v.1.15,2013-02-26 12:25:00,
2013-02-26 07:30:00,38.1,35.4,29.60,NE,43,1.0,2.0,90,0.00,,,0.15,Wunderground v.1.15,2013-02-26 12:30:00,
2013-02-26 07:40:00,38.3,35.6,29.59,NE,49,1.0,2.0,90,0.00,,,0.15,Wunderground v.1.15,2013-02-26 12:40:00,
2013-02-26 07:50:00,38.4,35.7,29.59,NW,305,1.0,1.0,90,0.00,,,0.15,Wunderground v.1.15,2013-02-26 12:50:00,
2013-02-26 08:00:00,38.4,35.7,29.60,ESE,108,0.0,2.0,90,0.00,,,0.16,Wunderground v.1.15,2013-02-26 13:00:00,
2013-02-26 08:05:00,38.5,36.1,29.59,NE,43,1.0,2.0,91,0.00,,,0.16,Wunderground v.1.15,2013-02-26 13:05:00,
2013-02-26 08:15:00,38.8,36.4,29.58,NNE,27,1.0,3.0,91,0.00,,,0.16,Wunderground v.1.15,2013-02-26 13:15:00,
2013-02-26 08:25:00,39.0,36.3,29.58,NNW,332,1.0,2.0,90,0.00,,,0.16,Wunderground v.1.15,2013-02-26 13:25:00,
2013-02-26 08:35:00,39.1,36.7,29.58,WNW,301,0.0,2.0,91,0.00,,,0.17,Wunderground v.1.15,2013-02-26 13:35:00,
2013-02-26 08:45:00,39.3,36.9,29.57,NNE,32,1.0,2.0,91,0.00,,,0.17,Wunderground v.1.15,2013-02-26 13:45:00,
2013-02-26 08:55:00,39.9,36.9,29.56,ENE,72,1.0,2.0,89,0.00,,,0.17,Wunderground v.1.15,2013-02-26 13:55:00,
2013-02-26 09:05:00,40.4,37.7,29.56,WSW,253,0.0,2.0,90,0.00,,,0.18,Wunderground v.1.15,2013-02-26 14:05:00,
2013-02-26 09:15:00,41.1,38.1,29.55,North,3,1.0,2.0,89,0.00,,,0.18,Wunderground v.1.15,2013-02-26 14:15:00,
2013-02-26 09:25:00,41.1,37.8,29.54,ENE,63,1.0,2.0,88,0.04,,,0.19,Wunderground v.1.15,2013-02-26 14:25:00,
2013-02-26 09:35:00,41.3,38.3,29.53,SW,236,1.0,2.0,89,0.08,,,0.20,Wunderground v.1.15,2013-02-26 14:35:00,
2013-02-26 09:40:00,41.4,38.4,29.52,North,11,1.0,1.0,89,0.05,,,0.20,Wunderground v.1.15,2013-02-26 14:40:00,
2013-02-26 09:45:00,41.6,38.6,29.53,NE,34,1.0,2.0,89,0.00,,,0.20,Wunderground v.1.15,2013-02-26 14:45:00,
2013-02-26 09:55:00,41.9,38.9,29.51,NW,314,1.0,2.0,89,0.00,,,0.20,Wunderground v.1.15,2013-02-26 14:55:00,
2013-02-26 10:05:00,42.2,39.2,29.52,NE,37,1.0,2.0,89,0.00,,,0.20,Wunderground v.1.15,2013-02-26 15:05:00,
2013-02-26 10:10:00,42.4,39.4,29.52,NE,38,1.0,1.0,89,0.00,,,0.20,Wunderground v.1.15,2013-02-26 15:10:00,
2013-02-26 10:20:00,42.7,39.7,29.50,NNE,26,3.0,3.0,89,0.18,,,0.22,Wunderground v.1.15,2013-02-26 15:20:00,
2013-02-26 10:25:00,42.6,39.9,29.50,NNE,23,2.0,3.0,90,0.07,,,0.22,Wunderground v.1.15,2013-02-26 15:25:00,
2013-02-26 10:35:00,43.1,40.7,29.49,NE,34,1.0,2.0,91,0.00,,,0.22,Wunderground v.1.15,2013-02-26 15:35:00,
2013-02-26 10:45:00,43.8,41.3,29.49,SW,232,1.0,2.0,91,0.00,,,0.22,Wunderground v.1.15,2013-02-26 15:45:00,
2013-02-26 10:55:00,44.1,41.6,29.48,North,357,1.0,2.0,91,0.00,,,0.22,Wunderground v.1.15,2013-02-26 15:55:00,
2013-02-26 11:00:00,44.2,41.5,29.48,NNE,32,2.0,2.0,90,0.00,,,0.23,Wunderground v.1.15,2013-02-26 16:00:00,
2013-02-26 11:10:00,45.3,42.8,29.48,NNE,31,2.0,5.0,91,0.09,,,0.24,Wunderground v.1.15,2013-02-26 16:10:00,
2013-02-26 11:20:00,47.0,45.1,29.47,ENE,61,2.0,2.0,93,0.04,,,0.24,Wunderground v.1.15,2013-02-26 16:20:00,
2013-02-26 11:25:00,47.5,44.4,29.47,NNE,25,2.0,3.0,89,0.00,,,0.24,Wunderground v.1.15,2013-02-26 16:25:00,
2013-02-26 11:35:00,47.4,44.6,29.47,ENE,60,2.0,2.0,90,0.00,,,0.24,Wunderground v.1.15,2013-02-26 16:35:00,
2013-02-26 11:45:00,47.7,44.3,29.46,NNE,18,2.0,2.0,88,0.00,,,0.24,Wunderground v.1.15,2013-02-26 16:45:00,
2013-02-26 11:50:00,47.8,44.1,29.46,NNW,340,2.0,2.0,87,0.00,,,0.24,Wunderground v.1.15,2013-02-26 16:50:00,
2013-02-26 12:00:00,47.9,44.8,29.46,NE,51,1.0,2.0,89,0.11,,,0.26,Wunderground v.1.15,2013-02-26 17:00:00,
2013-02-26 12:10:00,47.9,45.1,29.46,WNW,294,1.0,1.0,90,0.05,,,0.26,Wunderground v.1.15,2013-02-26 17:10:00,
2013-02-26 12:20:00,47.8,45.9,29.46,WNW,297,0.0,2.0,93,0.00,,,0.26,Wunderground v.1.15,2013-02-26 17:20:00,
2013-02-26 12:30:00,47.7,45.5,29.45,NNW,334,1.0,1.0,92,0.00,,,0.26,Wunderground v.1.15,2013-02-26 17:30:00,
2013-02-26 12:35:00,48.0,45.8,29.44,NE,34,1.0,2.0,92,0.00,,,0.26,Wunderground v.1.15,2013-02-26 17:35:00,
2013-02-26 12:45:00,48.6,46.4,29.43,NE,39,1.0,2.0,92,0.00,,,0.26,Wunderground v.1.15,2013-02-26 17:45:00,
2013-02-26 12:55:00,49.3,46.8,29.42,NE,34,1.0,3.0,91,0.00,,,0.26,Wunderground v.1.15,2013-02-26 17:55:00,
2013-02-26 13:00:00,49.3,46.8,29.42,NNW,344,1.0,2.0,91,0.00,,,0.26,Wunderground v.1.15,2013-02-26 18:00:00,
2013-02-26 13:10:00,49.5,47.0,29.41,NNE,21,1.0,2.0,91,0.00,,,0.27,Wunderground v.1.15,2013-02-26 18:10:00,
2013-02-26 13:20:00,50.0,47.5,29.40,NNE,33,1.0,2.0,91,0.00,,,0.27,Wunderground v.1.15,2013-02-26 18:20:00,
2013-02-26 13:25:00,50.1,47.3,29.40,East,83,1.0,2.0,90,0.00,,,0.27,Wunderground v.1.15,2013-02-26 18:25:00,
2013-02-26 13:30:00,50.4,47.9,29.40,ESE,118,0.0,2.0,91,0.00,,,0.28,Wunderground v.1.15,2013-02-26 18:30:00,
2013-02-26 13:40:00,50.6,47.8,29.39,NE,56,1.0,2.0,90,0.00,,,0.28,Wunderground v.1.15,2013-02-26 18:40:00,
2013-02-26 13:50:00,50.7,48.2,29.39,NE,39,1.0,2.0,91,0.00,,,0.28,Wunderground v.1.15,2013-02-26 18:50:00,
2013-02-26 13:55:00,50.6,48.1,29.38,NE,38,1.0,2.0,91,0.00,,,0.29,Wunderground v.1.15,2013-02-26 18:55:00,
2013-02-26 14:05:00,50.8,48.6,29.38,North,1,0.0,2.0,92,0.10,,,0.30,Wunderground v.1.15,2013-02-26 19:05:00,
2013-02-26 14:15:00,51.1,48.9,29.37,NNE,26,1.0,2.0,92,0.04,,,0.30,Wunderground v.1.15,2013-02-26 19:15:00,
2013-02-26 14:20:00,51.0,48.8,29.37,NNE,13,0.0,2.0,92,0.04,,,0.31,Wunderground v.1.15,2013-02-26 19:20:00,
2013-02-26 14:30:00,51.0,49.0,29.36,NE,44,0.0,2.0,93,0.06,,,0.32,Wunderground v.1.15,2013-02-26 19:30:00,
2013-02-26 14:35:00,51.1,49.1,29.36,NE,42,0.0,2.0,93,0.07,,,0.33,Wunderground v.1.15,2013-02-26 19:35:00,
2013-02-26 14:45:00,51.0,49.3,29.36,WNW,301,0.0,2.0,94,0.09,,,0.34,Wunderground v.1.15,2013-02-26 19:45:00,
2013-02-26 14:55:00,51.0,49.3,29.36,WNW,301,0.0,2.0,94,0.04,,,0.34,Wunderground v.1.15,2013-02-26 19:55:00,
2013-02-26 15:00:00,51.1,49.7,29.36,WNW,288,0.0,2.0,95,0.00,,,0.34,Wunderground v.1.15,2013-02-26 20:00:00,
2013-02-26 15:05:00,51.0,49.6,29.36,WNW,288,0.0,2.0,95,0.00,,,0.35,Wunderground v.1.15,2013-02-26 20:05:00,
2013-02-26 15:15:00,50.9,49.5,29.35,NNE,24,0.0,2.0,95,0.05,,,0.36,Wunderground v.1.15,2013-02-26 20:15:00,
2013-02-26 15:20:00,51.0,49.6,29.35,North,11,0.0,2.0,95,0.05,,,0.36,Wunderground v.1.15,2013-02-26 20:20:00,
2013-02-26 15:25:00,51.0,49.6,29.35,NNE,24,0.0,3.0,95,0.05,,,0.36,Wunderground v.1.15,2013-02-26 20:25:00,
2013-02-26 15:35:00,51.2,49.8,29.35,NW,317,1.0,2.0,95,0.00,,,0.36,Wunderground v.1.15,2013-02-26 20:35:00,
2013-02-26 15:45:00,51.6,50.2,29.34,North,352,1.0,2.0,95,0.00,,,0.37,Wunderground v.1.15,2013-02-26 20:45:00,
2013-02-26 15:50:00,51.6,50.2,29.35,South,169,1.0,2.0,95,0.00,,,0.37,Wunderground v.1.15,2013-02-26 20:50:00,
2013-02-26 16:00:00,51.7,50.3,29.34,NNE,23,1.0,1.0,95,0.00,,,0.37,Wunderground v.1.15,2013-02-26 21:00:00,
2013-02-26 16:05:00,51.6,50.2,29.35,SE,135,1.0,2.0,95,0.00,,,0.38,Wunderground v.1.15,2013-02-26 21:05:00,
2013-02-26 16:15:00,51.6,50.2,29.35,NE,56,1.0,2.0,95,0.07,,,0.40,Wunderground v.1.15,2013-02-26 21:15:00,
2013-02-26 16:25:00,52.1,50.7,29.35,SE,138,2.0,2.0,95,0.10,,,0.41,Wunderground v.1.15,2013-02-26 21:25:00,
2013-02-26 16:35:00,52.6,50.3,29.35,SSW,204,3.0,5.0,92,0.04,,,0.41,Wunderground v.1.15,2013-02-26 21:35:00,
2013-02-26 16:40:00,52.6,50.3,29.35,SSE,156,3.0,3.0,92,0.00,,,0.41,Wunderground v.1.15,2013-02-26 21:40:00,
2013-02-26 16:45:00,52.4,50.1,29.35,South,186,1.0,3.0,92,0.00,,,0.42,Wunderground v.1.15,2013-02-26 21:45:00,
2013-02-26 16:50:00,52.2,49.9,29.36,SE,137,1.0,2.0,92,0.00,,,0.42,Wunderground v.1.15,2013-02-26 21:50:00,
2013-02-26 17:00:00,51.9,49.6,29.36,SSW,204,1.0,2.0,92,0.00,,,0.42,Wunderground v.1.15,2013-02-26 22:00:00,
2013-02-26 17:10:00,51.7,49.7,29.35,SSW,204,1.0,2.0,93,0.00,,,0.42,Wunderground v.1.15,2013-02-26 22:10:00,
2013-02-26 17:15:00,51.6,49.6,29.36,SE,130,0.0,2.0,93,0.00,,,0.43,Wunderground v.1.15,2013-02-26 22:15:00,
2013-02-26 17:25:00,51.4,49.4,29.37,WSW,242,1.0,2.0,93,0.00,,,0.43,Wunderground v.1.15,2013-02-26 22:25:00,
2013-02-26 17:35:00,51.0,48.5,29.38,South,181,5.0,9.0,91,0.00,,,0.43,Wunderground v.1.15,2013-02-26 22:35:00,
2013-02-26 17:40:00,50.7,47.6,29.38,SSW,213,7.0,7.0,89,0.00,,,0.44,Wunderground v.1.15,2013-02-26 22:40:00,
2013-02-26 17:50:00,49.7,46.0,29.40,SSE,158,4.0,8.0,87,0.00,,,0.44,Wunderground v.1.15,2013-02-26 22:50:00,
2013-02-26 18:00:00,48.8,44.8,29.41,SSE,158,5.0,5.0,86,0.00,,,0.44,Wunderground v.1.15,2013-02-26 23:00:00,
2013-02-26 18:10:00,48.1,44.7,29.42,South,175,4.0,4.0,88,0.00,,,0.44,Wunderground v.1.15,2013-02-26 23:10:00,
2013-02-26 18:15:00,47.9,44.5,29.43,SSW,205,2.0,4.0,88,0.00,,,0.44,Wunderground v.1.15,2013-02-26 23:15:00,
2013-02-26 18:25:00,47.5,44.4,29.43,WSW,257,3.0,6.0,89,0.00,,,0.44,Wunderground v.1.15,2013-02-26 23:25:00,
2013-02-26 18:35:00,46.9,44.1,29.43,West,277,1.0,2.0,90,0.00,,,0.44,Wunderground v.1.15,2013-02-26 23:35:00,
2013-02-26 18:40:00,46.7,44.2,29.43,SSW,194,1.0,1.0,91,0.00,,,0.45,Wunderground v.1.15,2013-02-26 23:40:00,
2013-02-26 18:50:00,46.1,44.2,29.44,SW,236,0.0,2.0,93,0.00,,,0.45,Wunderground v.1.15,2013-02-26 23:50:00,
2013-02-26 19:00:00,45.6,43.7,29.44,WSW,253,1.0,1.0,93,0.00,,,0.45,Wunderground v.1.15,2013-02-27 00:00:00,
2013-02-26 19:10:00,45.2,43.6,29.45,WSW,253,0.0,2.0,94,0.00,,,0.45,Wunderground v.1.15,2013-02-27 00:10:00,
2013-02-26 19:20:00,45.0,43.7,29.45,SW,223,0.0,2.0,95,0.00,,,0.45,Wunderground v.1.15,2013-02-27 00:20:00,
2013-02-26 19:25:00,45.0,43.7,29.45,SW,226,0.0,2.0,95,0.00,,,0.45,Wunderground v.1.15,2013-02-27 00:25:00,
2013-02-26 19:35:00,45.1,43.5,29.47,WSW,248,0.0,2.0,94,0.00,,,0.45,Wunderground v.1.15,2013-02-27 00:35:00,
2013-02-26 19:45:00,45.0,43.4,29.47,WSW,248,0.0,2.0,94,0.00,,,0.45,Wunderground v.1.15,2013-02-27 00:45:00,
2013-02-26 19:55:00,44.9,43.6,29.47,SSE,166,0.0,2.0,95,0.00,,,0.45,Wunderground v.1.15,2013-02-27 00:55:00,
2013-02-26 20:05:00,44.8,43.5,29.47,WSW,246,0.0,2.0,95,0.00,,,0.45,Wunderground v.1.15,2013-02-27 01:05:00,
2013-02-26 20:10:00,44.8,43.5,29.48,SW,228,0.0,2.0,95,0.00,,,0.45,Wunderground v.1.15,2013-02-27 01:10:00,
2013-02-26 20:20:00,44.6,43.3,29.48,SW,229,0.0,2.0,95,0.00,,,0.45,Wunderground v.1.15,2013-02-27 01:20:00,
2013-02-26 20:30:00,44.5,43.2,29.48,SW,225,0.0,2.0,95,0.00,,,0.45,Wunderground v.1.15,2013-02-27 01:30:00,
2013-02-26 20:35:00,44.4,43.1,29.48,West,259,0.0,2.0,95,0.00,,,0.45,Wunderground v.1.15,2013-02-27 01:35:00,
2013-02-26 20:40:00,44.4,43.3,29.49,WSW,255,0.0,2.0,96,0.00,,,0.45,Wunderground v.1.15,2013-02-27 01:40:00,
2013-02-26 20:50:00,44.4,43.1,29.49,SSW,210,1.0,1.0,95,0.00,,,0.45,Wunderground v.1.15,2013-02-27 01:50:00,
2013-02-26 21:00:00,44.5,43.2,29.49,SW,228,0.0,2.0,95,0.00,,,0.45,Wunderground v.1.15,2013-02-27 02:00:00,
2013-02-26 21:10:00,44.5,42.9,29.50,SW,226,0.0,2.0,94,0.00,,,0.45,Wunderground v.1.15,2013-02-27 02:10:00,
2013-02-26 21:20:00,44.3,43.0,29.50,SW,229,0.0,2.0,95,0.00,,,0.45,Wunderground v.1.15,2013-02-27 02:20:00,
2013-02-26 21:30:00,44.3,43.0,29.50,SSW,197,0.0,2.0,95,0.00,,,0.45,Wunderground v.1.15,2013-02-27 02:30:00,
2013-02-26 21:35:00,44.4,43.1,29.50,SW,222,1.0,2.0,95,0.00,,,0.45,Wunderground v.1.15,2013-02-27 02:35:00,
2013-02-26 21:40:00,44.5,43.2,29.50,SW,228,2.0,5.0,95,0.00,,,0.46,Wunderground v.1.15,2013-02-27 02:40:00,
2013-02-26 21:45:00,44.4,42.2,29.50,SSW,207,4.0,5.0,92,0.00,,,0.46,Wunderground v.1.15,2013-02-27 02:45:00,
2013-02-26 21:50:00,44.4,41.9,29.50,SW,215,5.0,7.0,91,0.00,,,0.46,Wunderground v.1.15,2013-02-27 02:50:00,
2013-02-26 22:00:00,44.2,41.5,29.50,SW,223,5.0,7.0,90,0.00,,,0.46,Wunderground v.1.15,2013-02-27 03:00:00,
2013-02-26 22:05:00,44.1,41.4,29.51,SW,231,5.0,7.0,90,0.00,,,0.46,Wunderground v.1.15,2013-02-27 03:05:00,
2013-02-26 22:10:00,43.9,41.2,29.51,SSW,211,4.0,4.0,90,0.00,,,0.46,Wunderground v.1.15,2013-02-27 03:10:00,
2013-02-26 22:20:00,43.7,41.2,29.51,WSW,245,2.0,3.0,91,0.00,,,0.46,Wunderground v.1.15,2013-02-27 03:20:00,
2013-02-26 22:30:00,43.4,40.9,29.51,SW,228,3.0,3.0,91,0.00,,,0.46,Wunderground v.1.15,2013-02-27 03:30:00,
2013-02-26 22:40:00,43.1,40.9,29.51,South,181,2.0,3.0,92,0.00,,,0.47,Wunderground v.1.15,2013-02-27 03:40:00,
2013-02-26 22:45:00,43.1,40.9,29.51,SSW,205,2.0,4.0,92,0.00,,,0.47,Wunderground v.1.15,2013-02-27 03:45:00,
2013-02-26 22:55:00,42.9,40.7,29.51,SW,235,2.0,3.0,92,0.00,,,0.47,Wunderground v.1.15,2013-02-27 03:55:00,
2013-02-26 23:00:00,42.9,40.7,29.51,WSW,238,1.0,3.0,92,0.00,,,0.47,Wunderground v.1.15,2013-02-27 04:00:00,
2013-02-26 23:10:00,42.8,40.9,29.52,SSW,201,1.0,1.0,93,0.00,,,0.48,Wunderground v.1.15,2013-02-27 04:10:00,
2013-02-26 23:15:00,42.7,40.8,29.52,SW,221,1.0,2.0,93,0.00,,,0.48,Wunderground v.1.15,2013-02-27 04:15:00,
2013-02-26 23:25:00,42.6,40.7,29.52,SW,218,1.0,2.0,93,0.00,,,0.48,Wunderground v.1.15,2013-02-27 04:25:00,
2013-02-26 23:35:00,42.5,40.3,29.52,SW,214,2.0,2.0,92,0.00,,,0.48,Wunderground v.1.15,2013-02-27 04:35:00,
2013-02-26 23:45:00,42.5,40.3,29.52,SW,222,1.0,2.0,92,0.00,,,0.48,Wunderground v.1.15,2013-02-27 04:45:00,
2013-02-26 23:55:00,42.4,40.5,29.52,SW,232,1.0,2.0,93,0.00,,,0.48,Wunderground v.1.15,2013-02-27 04:55:00,